• In France
  • List of Countries
  • For 7 days
  • Water Temperature
  • Satellite Maps
  • Weather Map
  • Weather Widgets
  • user-avatar
    Login

    Hourly Weather Valledupar

    Today, 16 December, Saturday

    Time Temperature Precipitation Wind Pressure Humidity
    00:00 +27°C° 0 mm 2 mps 744 mmHg 80%
    01:00 +27°C° 0 mm 2 mps 743 mmHg 80%
    02:00 +27°C° 0 mm 2 mps 743 mmHg 79%
    03:00 +26°C° 0 mm 2 mps 743 mmHg 78%
    04:00 +26°C° 0 mm 2 mps 743 mmHg 78%
    05:00 +26°C° 0 mm 2 mps 743 mmHg 74%
    06:00 +27°C° 0 mm 2 mps 744 mmHg 70%
    07:00 +27°C° 0 mm 2 mps 744 mmHg 66%
    08:00 +29°C° 0 mm 2 mps 744 mmHg 57%
    09:00 +32°C° 0 mm 2 mps 745 mmHg 47%
    10:00 +36°C° 0 mm 2 mps 745 mmHg 37%
    11:00 +37°C° 0 mm 2 mps 744 mmHg 34%
    12:00 +37°C° 0 mm 3 mps 743 mmHg 31%
    13:00 +38°C° 0 mm 3 mps 743 mmHg 28%
    14:00 +37°C° 0 mm 3 mps 742 mmHg 30%
    15:00 +37°C° 0 mm 3 mps 742 mmHg 31%
    16:00 +36°C° 0 mm 3 mps 741 mmHg 32%
    17:00 +33°C° 0 mm 3 mps 741 mmHg 39%
    18:00 +30°C° 0 mm 2 mps 742 mmHg 46%
    19:00 +28°C° 0 mm 2 mps 742 mmHg 53%
    20:00 +27°C° 0 mm 2 mps 742 mmHg 56%
    21:00 +27°C° 0 mm 2 mps 743 mmHg 60%
    22:00 +27°C° 0 mm 2 mps 743 mmHg 63%
    23:00 +27°C° 0 mm 2 mps 743 mmHg 67%

    Tomorrow, 17 December, Sunday

    Time Temperature Precipitation Wind Pressure Humidity
    00:00 +27°C° 0 mm 2 mps 743 mmHg 70%
    01:00 +27°C° 0 mm 2 mps 743 mmHg 73%
    02:00 +27°C° 0 mm 2 mps 743 mmHg 69%
    03:00 +26°C° 0 mm 2 mps 743 mmHg 66%
    04:00 +26°C° 0 mm 2 mps 742 mmHg 62%
    05:00 +27°C° 0 mm 2 mps 743 mmHg 64%
    06:00 +27°C° 0 mm 2 mps 744 mmHg 66%
    07:00 +28°C° 0 mm 2 mps 744 mmHg 68%
    08:00 +30°C° 0 mm 3 mps 745 mmHg 61%
    09:00 +33°C° 0 mm 3 mps 745 mmHg 55%
    10:00 +35°C° 0 mm 3 mps 745 mmHg 49%
    11:00 +36°C° 0 mm 3 mps 744 mmHg 45%
    12:00 +37°C° 0 mm 3 mps 744 mmHg 42%
    13:00 +38°C° 0 mm 3 mps 743 mmHg 39%
    14:00 +37°C° 0 mm 3 mps 742 mmHg 40%
    15:00 +36°C° 0 mm 3 mps 742 mmHg 42%
    16:00 +36°C° 0 mm 3 mps 741 mmHg 44%
    17:00 +34°C° 0 mm 3 mps 741 mmHg 52%
    18:00 +31°C° 0 mm 2 mps 742 mmHg 59%
    19:00 +29°C° 0 mm 2 mps 742 mmHg 67%
    20:00 +28°C° 0 mm 2 mps 743 mmHg 69%
    21:00 +28°C° 0 mm 2 mps 743 mmHg 71%
    22:00 +28°C° 0 mm 2 mps 743 mmHg 73%
    23:00 +28°C° 0.1 mm 2 mps 743 mmHg 74%

    Day after tomorrow, 18 December, Monday

    Time Temperature Precipitation Wind Pressure Humidity
    00:00 +28°C° 0.1 mm 2 mps 743 mmHg 76%
    01:00 +28°C° 0.1 mm 2 mps 743 mmHg 77%
    02:00 +27°C° 0 mm 2 mps 743 mmHg 76%
    03:00 +27°C° 0 mm 2 mps 743 mmHg 75%
    04:00 +27°C° 0 mm 2 mps 742 mmHg 74%
    05:00 +27°C° 0 mm 2 mps 743 mmHg 72%
    06:00 +28°C° 0 mm 2 mps 743 mmHg 70%
    07:00 +28°C° 0 mm 2 mps 744 mmHg 68%
    08:00 +30°C° 0 mm 2 mps 744 mmHg 60%
    09:00 +32°C° 0 mm 2 mps 745 mmHg 53%
    10:00 +36°C° 0 mm 3 mps 745 mmHg 46%
    11:00 +36°C° 0 mm 3 mps 744 mmHg 43%
    12:00 +37°C° 0 mm 3 mps 743 mmHg 41%
    13:00 +38°C° 0 mm 3 mps 743 mmHg 38%
    14:00 +37°C° 0 mm 3 mps 742 mmHg 41%
    15:00 +36°C° 0 mm 3 mps 742 mmHg 43%
    16:00 +36°C° 0 mm 3 mps 741 mmHg 46%
    17:00 +34°C° 0 mm 2 mps 741 mmHg 54%
    18:00 +31°C° 0 mm 2 mps 742 mmHg 62%
    19:00 +29°C° 0 mm 2 mps 742 mmHg 70%
    20:00 +28°C° 0 mm 2 mps 743 mmHg 72%
    21:00 +28°C° 0 mm 2 mps 743 mmHg 73%
    22:00 +28°C° 0 mm 2 mps 744 mmHg 75%
    23:00 +28°C° 0.1 mm 2 mps 744 mmHg 76%

    19 December, Tuesday

    Time Temperature Precipitation Wind Pressure Humidity
    00:00 +28°C° 0.1 mm 2 mps 743 mmHg 78%
    01:00 +27°C° 0.1 mm 2 mps 743 mmHg 80%
    02:00 +27°C° 0 mm 2 mps 743 mmHg 80%
    03:00 +27°C° 0 mm 2 mps 743 mmHg 81%
    04:00 +27°C° 0 mm 2 mps 743 mmHg 82%
    05:00 +27°C° 0 mm 2 mps 743 mmHg 79%
    06:00 +27°C° 0 mm 2 mps 744 mmHg 76%
    07:00 +28°C° 0 mm 2 mps 744 mmHg 74%
    08:00 +30°C° 0 mm 2 mps 745 mmHg 64%
    09:00 +32°C° 0 mm 2 mps 745 mmHg 54%
    10:00 +36°C° 0 mm 2 mps 745 mmHg 44%
    11:00 +37°C° 0 mm 2 mps 744 mmHg 41%
    12:00 +37°C° 0 mm 2 mps 743 mmHg 38%
    13:00 +38°C° 0 mm 3 mps 742 mmHg 36%
    14:00 +37°C° 0 mm 2 mps 742 mmHg 39%
    15:00 +37°C° 0 mm 2 mps 741 mmHg 42%
    16:00 +36°C° 0 mm 2 mps 741 mmHg 44%
    17:00 +34°C° 0 mm 2 mps 741 mmHg 53%
    18:00 +31°C° 0 mm 2 mps 742 mmHg 62%
    19:00 +29°C° 0 mm 2 mps 742 mmHg 70%
    20:00 +28°C° 0 mm 2 mps 742 mmHg 72%
    21:00 +28°C° 0 mm 2 mps 743 mmHg 75%
    22:00 +28°C° 0 mm 2 mps 743 mmHg 77%
    23:00 +28°C° 0.1 mm 2 mps 743 mmHg 78%

    20 December, Wednesday

    Time Temperature Precipitation Wind Pressure Humidity
    00:00 +28°C° 0.1 mm 2 mps 743 mmHg 80%
    01:00 +27°C° 0.1 mm 2 mps 743 mmHg 82%
    02:00 +27°C° 0 mm 2 mps 743 mmHg 82%
    03:00 +27°C° 0 mm 2 mps 743 mmHg 83%
    04:00 +27°C° 0 mm 1 mps 743 mmHg 83%
    05:00 +27°C° 0 mm 1 mps 743 mmHg 81%
    06:00 +27°C° 0 mm 1 mps 744 mmHg 78%
    07:00 +27°C° 0 mm 1 mps 744 mmHg 76%
    08:00 +30°C° 0 mm 1 mps 744 mmHg 65%
    09:00 +32°C° 0 mm 2 mps 745 mmHg 54%
    10:00 +36°C° 0 mm 2 mps 745 mmHg 43%
    11:00 +36°C° 0 mm 2 mps 744 mmHg 41%
    12:00 +37°C° 0 mm 2 mps 743 mmHg 39%
    13:00 +38°C° 0 mm 2 mps 742 mmHg 38%
    14:00 +37°C° 0 mm 2 mps 742 mmHg 41%
    15:00 +36°C° 0 mm 2 mps 741 mmHg 45%
    16:00 +35°C° 0 mm 2 mps 741 mmHg 48%
    17:00 +32°C° 0 mm 2 mps 741 mmHg 58%
    18:00 +30°C° 0 mm 2 mps 741 mmHg 67%
    19:00 +28°C° 0 mm 2 mps 742 mmHg 77%
    20:00 +28°C° 0 mm 2 mps 742 mmHg 78%
    21:00 +28°C° 0 mm 2 mps 742 mmHg 80%
    22:00 +27°C° 0 mm 2 mps 743 mmHg 81%
    23:00 +27°C° 0.1 mm 2 mps 742 mmHg 82%

    21 December, Thursday

    Time Temperature Precipitation Wind Pressure Humidity
    00:00 +27°C° 0.1 mm 2 mps 742 mmHg 82%
    01:00 +27°C° 0.1 mm 2 mps 742 mmHg 83%
    02:00 +27°C° 0 mm 2 mps 742 mmHg 83%
    03:00 +27°C° 0 mm 2 mps 742 mmHg 83%
    04:00 +27°C° 0 mm 2 mps 742 mmHg 84%
    05:00 +27°C° 0 mm 2 mps 742 mmHg 81%
    06:00 +27°C° 0 mm 2 mps 743 mmHg 78%
    07:00 +28°C° 0 mm 2 mps 744 mmHg 76%
    08:00 +30°C° 0 mm 2 mps 744 mmHg 66%
    09:00 +32°C° 0 mm 2 mps 744 mmHg 57%
    10:00 +35°C° 0 mm 2 mps 744 mmHg 47%
    11:00 +36°C° 0 mm 2 mps 743 mmHg 45%
    12:00 +37°C° 0 mm 3 mps 743 mmHg 43%
    13:00 +38°C° 0 mm 3 mps 742 mmHg 41%
    14:00 +37°C° 0 mm 3 mps 741 mmHg 44%
    15:00 +36°C° 0 mm 3 mps 741 mmHg 47%
    16:00 +36°C° 0 mm 3 mps 740 mmHg 49%
    17:00 +34°C° 0 mm 2 mps 741 mmHg 58%
    18:00 +31°C° 0 mm 2 mps 741 mmHg 67%
    19:00 +29°C° 0 mm 2 mps 742 mmHg 75%
    20:00 +28°C° 0 mm 2 mps 742 mmHg 77%
    21:00 +28°C° 0 mm 2 mps 742 mmHg 79%
    22:00 +28°C° 0 mm 2 mps 743 mmHg 81%
    23:00 +28°C° 0.1 mm 2 mps 743 mmHg 82%
    Show more